Change the Weather History Date:

Wednesday, December 18, 2013

  Actual Average (KFLL) Record (KFLL)
Temperature  
Mean Temperature 68 °F 71 °F  
Max Temperature 78 °F 78 °F 87 °F (1989)
Min Temperature 59 °F 64 °F 38 °F (1973)
Degree Days  
Heating Degree Days 0 1  
Month to date heating degree days 13  
Since 1 July heating degree days 15  
Cooling Degree Days 4 7  
Month to date cooling degree days 139  
Year to date cooling degree days 4652  
Growing Degree Days 18 (Base 50)    
Moisture  
Dew Point 56 °F    
Average Humidity 71    
Maximum Humidity 96    
Minimum Humidity 48    
Precipitation  
Precipitation 0.00 in 0.09 in 2.45 in (2009)
Month to date precipitation 1.55  
Year to date precipitation 61.27  
Snow  
Snow 0.00 in - - ()
Month to date snowfall  
Since 1 July snowfall  
Snow Depth -    
Sea Level Pressure  
Sea Level Pressure 30.21 in    
Wind  
Wind Speed 7 mph (North)    
Max Wind Speed 15 mph    
Max Gust Speed 21 mph    
Visibility 10 miles    
Events      
T = Trace of Precipitation, MM = Missing Value Source: NWS Daily Summary

Daily Weather History Graph

Daily Weather History Graph

Search for Another Location

Airport or City:

Trip Planner

Search our weather history database for the weather conditions in past years. The results will help you decide how hot, cold, wet, or windy it might be!

Date:

Astronomy

Dec. 18, 2013 Rise Set
Actual Time 7:02 AM EST 5:33 PM EST
Civil Twilight 6:36 AM EST 5:58 PM EST
Nautical Twilight 6:08 AM EST 6:27 PM EST
Astronomical Twilight 5:39 AM EST 6:55 PM EST
Moon 6:55 PM EST (12/18) 7:47 AM EST (12/18)
Length of Visible Light 11h 21m
Length of Day
10h 31m
Full, 98% of the Moon is Illuminated
Dec 18
Full
Dec 25
Last Quarter
Jan 1
New
Jan 7
First Quarter
Jan 15
Full

Hourly Weather History & Observations

Time (EST) Temp. Dew Point Humidity Pressure Visibility Wind Dir Wind Speed Gust Speed Precip Events Conditions
12:53 AM 62.1 °F 57.0 °F 84% 30.17 in 10.0 mi Calm Calm - N/A   Clear
1:53 AM 60.1 °F 57.0 °F 90% 30.16 in 10.0 mi NNW 3.5 mph - N/A   Clear
2:53 AM 60.1 °F 57.0 °F 90% 30.17 in 10.0 mi NNW 3.5 mph - N/A   Clear
3:53 AM 59.0 °F 57.0 °F 93% 30.17 in 10.0 mi NW 4.6 mph - N/A   Clear
4:53 AM 59.0 °F 57.0 °F 93% 30.17 in 10.0 mi NNW 5.8 mph - N/A   Clear
5:53 AM 59.0 °F 57.9 °F 96% 30.19 in 10.0 mi NNW 5.8 mph - N/A   Clear
6:53 AM 60.1 °F 57.9 °F 93% 30.21 in 10.0 mi NNW 5.8 mph - N/A   Clear
7:53 AM 63.0 °F 59.0 °F 87% 30.22 in 10.0 mi NNW 8.1 mph - N/A   Clear
8:53 AM 66.9 °F 59.0 °F 76% 30.24 in 10.0 mi North 8.1 mph - N/A   Clear
9:53 AM 71.1 °F 54.0 °F 55% 30.25 in 10.0 mi North 15.0 mph - N/A   Clear
10:53 AM 73.0 °F 53.1 °F 49% 30.25 in 10.0 mi NNW 13.8 mph - N/A   Clear
11:53 AM 75.0 °F 55.0 °F 50% 30.23 in 10.0 mi North 13.8 mph - N/A   Clear
12:53 PM 77.0 °F 55.9 °F 48% 30.20 in 10.0 mi North 9.2 mph - N/A   Clear
1:53 PM 78.1 °F 57.0 °F 48% 30.18 in 10.0 mi NNE 10.4 mph - N/A   Clear
2:53 PM 77.0 °F 57.0 °F 50% 30.18 in 10.0 mi NE 12.7 mph - N/A   Partly Cloudy
3:53 PM 75.9 °F 57.0 °F 52% 30.18 in 10.0 mi NE 12.7 mph 20.7 mph N/A   Clear
4:53 PM 73.0 °F 57.0 °F 57% 30.19 in 10.0 mi North 15.0 mph - N/A   Clear
5:53 PM 70.0 °F 55.9 °F 61% 30.20 in 10.0 mi North 11.5 mph - N/A   Clear
6:53 PM 68.0 °F 55.9 °F 65% 30.21 in 10.0 mi North 10.4 mph - N/A   Clear
7:53 PM 66.9 °F 55.0 °F 66% 30.22 in 10.0 mi North 9.2 mph - N/A   Clear
8:53 PM 64.9 °F 54.0 °F 68% 30.24 in 10.0 mi North 8.1 mph - N/A   Clear
9:53 PM 64.0 °F 55.0 °F 73% 30.25 in 10.0 mi North 8.1 mph - N/A   Clear
10:53 PM 63.0 °F 55.0 °F 75% 30.25 in 10.0 mi North 6.9 mph - N/A   Partly Cloudy
11:53 PM 62.1 °F 55.0 °F 78% 30.24 in 10.0 mi North 4.6 mph - N/A   Partly Cloudy